Terug naar catalogus

SL-12 R/B

AUX MOTOR

ActiefHEO
NORAD 36406·ROCKET BODY·🇷🇺 Russia

Gelanceerd Mar 1, 2010 vanaf Baikonur Cosmodrome

Loading…

Volgende Passages (komende 24 uur)

TLE

VersSource: Space-Track

Epoch: Sep 14, 2026, 00:00 UTC

1 36406U 10007G   26257.00047651 -.00000035  00000-0 -16318-3 0  9994
2 36406  64.6333 181.0793 5634978 324.1750   8.6717  4.23097259186981

Volg SL-12 R/B in realtime met AllMySat

Download on the App Store